Hartford Brainard Airport
KHFD : now visible

Airfield :











YOU CAN JOIN US ON...

 
LOGIN :

Register | Disclaimer

   EN    FR    IT 

 









Legend :    VFR   Marginal VFR   IFR   Intensive IFR   Very Intensive IFR
Visi :
Ceiling :
>= 8 km
>= 3000ft
5 to 8 km
1000 to 3000 ft
1500m to 5 km
500 to 1000 ft
800 to 1500m
200 to 500 ft
< 800m
< 200 ft
Symbols :   Thunderstorms  Fog  Heavy snow  Heavy precipitations  Wind > 20 kt






- Airport Elevation : 18 ft


KHFD - Hartford Brainard

CURRENT METAR :
  • 061453Z 19007KT 10SM BKN070 01/M06 A3011 RMK AO2 SLP196 T00061056 58000

EXPIRED METARs :
  • 061353Z 18006KT 10SM SCT080 M01/M07 A3012 RMK AO2 SLP198 T10061067
  • 061253Z 18005KT 10SM CLR M01/M07 A3011 RMK AO2 SLP195 T10111067

TAF N/A



MET'MAP, your aeronautical weather chart ! - Copyright ORBIFLY December 2007 - Disclaimer

ORBIFLY MET'MAP TEAM :

Programming & Development : Alexandra Zaïnal
Concept & original design : Baudouin d'Aumeries
Assistance for programming : Marc-Olivier Méhu
Technical & hardware support : Manuel Goepfert

Contact : metmap@orbifly.com




SOURCES & CREDITS :

   NOAA       Earth
Advisory